VDNH-80 (44392 NORAD) Tracking and Keplerian Element Data

This shows tracking and keplerian element data for the satellite.

Feedback or suggestion? Click here.




ElementValue
Catalog44392
NameVDNH-80
Epoch Orbit221
Epoch Day201.91662878
Epoch Year2019
RAAN163.5758
Inclination97.4908
Eccentricity0.0021394
Argument of Perigee192.7031
Mean Anonmoly167.3663
Mean Motion15.12191509
Decay Rate4.74E-06
L11 44392U 19038G 19201.91662878 .00000474 00000-0 31079-4 0 9992
L22 44392 97.4908 163.5758 0021394 192.7031 167.3663 15.12191509 2219

Live tracking and technical data element details for VDNH-80 (NORAD 44392). VDNH-80 can be tracked NOW for your location showing map with azimuth and elevation plus other details from your city location.

Track the satellite on the map from your city or location and see movement details for azimuth, elevation, latitude, longitude, range, height, and movement on the map or in text.







IsCatalogInMostPopularTable: catalog: 44392, numindb: 2
Update: records affected: 1



GetName: 44392 VDNH-80

Hit Count: updated at: Sun, 21 Jul 2019 20:56:15 GMT